TimeMDT,TemperatureF,Dew PointF,Humidity,Sea Level PressureIn,VisibilityMPH,Wind Direction,Wind SpeedMPH,Gust SpeedMPH,PrecipitationIn,Events,Conditions,WindDirDegrees,DateUTC
12:53 AM,60.1,35.1,39,29.79,10.0,NW,15.0,-,N/A,,Clear,310,2012-10-17 06:53:00
1:53 AM,57.9,28.0,32,29.81,10.0,West,10.4,-,N/A,,Clear,280,2012-10-17 07:53:00
2:53 AM,55.9,21.9,27,29.82,10.0,West,10.4,-,N/A,,Clear,280,2012-10-17 08:53:00
3:53 AM,55.0,10.0,17,29.83,10.0,NW,16.1,-,N/A,,Clear,310,2012-10-17 09:53:00
4:53 AM,50.0,9.0,19,29.85,10.0,WNW,12.7,-,N/A,,Clear,300,2012-10-17 10:53:00
5:53 AM,48.9,8.1,19,29.88,10.0,West,11.5,-,N/A,,Clear,280,2012-10-17 11:53:00
6:53 AM,45.0,10.9,25,29.93,10.0,West,9.2,-,N/A,,Clear,270,2012-10-17 12:53:00
7:53 AM,46.9,10.9,23,29.96,10.0,WNW,5.8,-,N/A,,Clear,290,2012-10-17 13:53:00
8:53 AM,52.0,10.0,19,29.96,10.0,WNW,15.0,-,N/A,,Clear,300,2012-10-17 14:53:00
9:53 AM,55.9,6.1,14,29.97,10.0,WNW,17.3,-,N/A,,Clear,290,2012-10-17 15:53:00
10:53 AM,57.9,7.0,13,29.98,10.0,NW,15.0,-,N/A,,Clear,320,2012-10-17 16:53:00
11:53 AM,60.1,6.1,12,29.97,10.0,NNW,3.5,-,N/A,,Clear,340,2012-10-17 17:53:00
12:53 PM,61.0,6.1,11,29.97,10.0,West,8.1,-,N/A,,Clear,270,2012-10-17 18:53:00
1:53 PM,63.0,1.9,9,29.95,10.0,West,8.1,17.3,N/A,,Clear,270,2012-10-17 19:53:00
2:53 PM,64.0,1.0,8,29.94,10.0,WSW,13.8,19.6,N/A,,Clear,250,2012-10-17 20:53:00
3:53 PM,64.9,1.9,8,29.93,10.0,West,10.4,20.7,N/A,,Clear,260,2012-10-17 21:53:00
4:53 PM,64.9,3.0,9,29.93,10.0,West,10.4,-,N/A,,Clear,270,2012-10-17 22:53:00
5:53 PM,64.0,1.9,8,29.94,10.0,WSW,8.1,-,N/A,,Clear,250,2012-10-17 23:53:00
6:53 PM,57.9,5.0,12,29.98,10.0,West,6.9,-,N/A,,Clear,270,2012-10-18 00:53:00
7:53 PM,57.9,3.9,11,29.99,10.0,West,10.4,-,N/A,,Clear,280,2012-10-18 01:53:00
8:53 PM,57.9,3.9,11,29.98,10.0,West,15.0,-,N/A,,Clear,280,2012-10-18 02:53:00
9:53 PM,54.0,5.0,14,30.01,10.0,West,11.5,-,N/A,,Clear,270,2012-10-18 03:53:00
10:53 PM,51.1,5.0,15,30.04,10.0,West,6.9,-,N/A,,Clear,270,2012-10-18 04:53:00
11:53 PM,46.0,8.1,21,30.06,10.0,ENE,3.5,-,N/A,,Clear,70,2012-10-18 05:53:00